Weather in Podcherye

Russia / Komi Republic     63°56′22″N   57°33′41″E
temp.,
°C
wind,
m/s
gust,
m/s
humid.,
%
clouds,
%
prec.,
mm/h
press.,
hPa
HPBL,
m
8 march, mon
mon800:00−24ene119991 0.0 100820
03:00−26ene119988 0.1 100719
06:00−27ne129948 0.0 100719
09:00−22ne229347 0.0 1007209
12:00−19n238789 0.0 1006450
15:00−19n349194 0.0 1006411
18:00−25n379850 0.0 1007137
21:00−29n359852 0.0 100899
9 march, tue
tue900:00−31n369713 0.0 1008130
03:00−33n369723 0.0 1009138
06:00−36n379679 0.0 1010166
09:00−32n369173 0.0 1011345
12:00−27n478795 0.0 1012512
15:00−26nnw368797 0.0 1013606
18:00−30nnw239698 0.0 101524
21:00−32nnw1210079 0.0 101619
10 march, wed
wed1000:00−33w1110091 0.0 101619
03:00−33sw1210095 0.1 101619
06:00−32ssw2399100 0.1 101579
09:00−28ssw3495100 0.1 1014245
12:00−23ssw4693100 0.1 1013390
15:00−21ssw3696100 0.3 1011403
18:00−21s3499100 0.3 1011110
21:00−22s2299100 0.3 101125
11 march, thu
thu1100:00−22s1299100 0.0 101030
03:00−21sse2298100 0.1 100946
06:00−21s2298100 0.0 100953
09:00−17s3595100 0.4 1008256
12:00−14ssw3593100 0.5 1008246
15:00−8wnw5788100 0.8 1007805
18:00−13wnw3392100 0.0 100854
21:00−15w239699 0.1 100946
12 march, fri
fri1200:00−15w3597100 0.1 1010132
03:00−15w3795100 0.1 1010232
06:00−16wsw2395100 0.0 101167
09:00−12wsw369098 0.1 1012515
12:00−10wsw4786100 0.1 1013776
15:00−9wsw4784100 0.2 1013780
18:00−12ssw3793100 0.0 1013133
21:00−13ssw4893100 0.0 1014195